Flag for United Kingdom Past Weather in Lerwick (Shetland Islands), Scotland, United Kingdom — Yesterday and Last 2 Weeks

Now
45 °F

Overcast.


Feels Like: 38 °F
Forecast: 44 / 51 °F
Wind: 17 mph from North

Location: Lerwick

Current Time: May 24, 2016 at 11:08:05 AM

Latest Report: May 24, 2016 at 10:00 AM


Visibility: 28 mi

Pressure: 30.35 "Hg

Humidity: 63%

Dew Point: 33 °F

Location of Lerwick (Shetland Islands)Location

Past Weather in Lerwick (Shetland Islands) — Graph

°F

Lerwick (Shetland Islands) Temperature Yesterday

Maximum temperature yesterday: 55 °F (at 2:00 PM)
Minimum temperature yesterday: 42 °F (at 11:00 PM)
Average temperature yesterday: 49 °F

High & Low Weather Summary for the Past Weeks

 TemperatureHumidityPressure
High56 °F (May 9, 1:00 PM)100% (May 10, 1:00 AM)30.35 "Hg (May 10, 1:00 AM)
Low34 °F (May 15, 2:00 AM)49% (May 13, 10:00 AM)29.32 "Hg (May 21, 8:00 PM)
Average45 °F83%29.93 "Hg
* Reported May 9 10:00 AM — May 24 10:00 AM, Lerwick (Shetland Islands), Weather by CustomWeather, © 2016

Note: Actual official high and low records may vary slightly from our data, if they occured in-between our weather recording intervals... More about our weather records

Advertising

Lerwick (Shetland Islands) Weather History for the Previous 24 Hours

Scroll right to see more
 ConditionsComfort  
Time TempWeatherWind HumidityBarometerVisibility
10:00 AM
Tue, May 24
45 °FOvercast.17 mph63%30.35 "Hg28 mi
9:00 AM45 °FOvercast.15 mph64%30.35 "Hg25 mi
8:00 AM45 °FOvercast.18 mph65%30.34 "Hg28 mi
7:00 AM44 °FScattered clouds.14 mph73%30.33 "Hg28 mi
6:00 AM42 °FPassing clouds.9 mph85%30.32 "Hg25 mi
5:00 AM42 °FPassing clouds.7 mph91%30.31 "Hg22 mi
4:00 AM43 °FQuite cool.8 mph88%30.30 "Hg22 mi
3:00 AM42 °FPassing clouds.6 mph90%30.30 "Hg22 mi
2:00 AM43 °FOvercast.7 mph90%30.30 "Hg22 mi
1:00 AM43 °FPassing clouds.8 mph89%30.29 "Hg25 mi
12:00 AM42 °FOvercast.9 mph90%30.29 "Hg22 mi
11:00 PM
Mon, May 23
42 °FPassing clouds.9 mph87%30.27 "Hg16 mi
10:00 PM45 °FPassing clouds.13 mph78%30.26 "Hg22 mi
9:00 PM46 °FPassing clouds.12 mph73%30.24 "Hg22 mi
8:00 PM48 °FPassing clouds.14 mph71%30.23 "Hg22 mi
7:00 PM47 °FScattered clouds.14 mph82%30.21 "Hg25 mi
6:00 PM49 °FScattered clouds.13 mph80%30.18 "Hg25 mi
5:00 PM50 °FCool.14 mph84%30.16 "Hg22 mi
4:00 PM51 °FScattered clouds.17 mph79%30.14 "Hg25 mi
3:00 PM54 °FScattered clouds.12 mph74%30.12 "Hg25 mi
2:00 PM55 °FScattered clouds.13 mph60%30.11 "Hg28 mi
1:00 PM53 °FPartly sunny.12 mph73%30.09 "Hg22 mi
12:00 PM53 °FPartly sunny.10 mph74%30.07 "Hg22 mi
11:00 AM52 °FScattered clouds.12 mph75%30.06 "Hg25 mi
Weather by CustomWeather, © 2016

See weather overviewHow to use our weather pages